Columbia, MO

1:01 AM CDT on March 23, 2017 (GMT -0500)
Columbia Regional

Weather History for KCOU - October, 2012

Change the Weather History Date:

Thursday, October 25, 2012

  Actual Average Record
Temperature  
Mean Temperature 60 °F 53 °F  
Max Temperature 77 °F 64 °F 88 °F (1939)
Min Temperature 42 °F 43 °F 22 °F (2013)
Degree Days  
Heating Degree Days 5 12  
Month to date heating degree days 209 219  
Since 1 July heating degree days 258 287  
Cooling Degree Days 0 0  
Month to date cooling degree days 29 15  
Year to date cooling degree days 1893 1242  
Growing Degree Days 10 (Base 50)    
Moisture  
Dew Point 49 °F    
Average Humidity 77    
Maximum Humidity 89    
Minimum Humidity 65    
Precipitation  
Precipitation 0.03 in 0.09 in 1.15 in (1956)
Month to date precipitation 3.08 2.74  
Year to date precipitation 28.15 36.36  
Snow  
Snow 0.00 in 0.00 in T in (1898)
Month to date snowfall 0.0 0.0  
Since 1 July snowfall 0.0 0.0  
Since 1 September snowfall 0.0 0.0  
Snow Depth 0.00 in    
Sea Level Pressure  
Sea Level Pressure 29.93 in    
Wind  
Wind Speed 15 mph (WNW)    
Max Wind Speed 30 mph    
Max Gust Speed 39 mph    
Visibility 10 miles    
Events Rain    
T = Trace of Precipitation, MM = Missing Value Source: NWS Daily Summary

Daily Weather History Graph

Daily Weather History Graph

Search for Another Location

Airport or City:

Trip Planner

Search our weather history database for the weather conditions in past years. The results will help you decide how hot, cold, wet, or windy it might be!

Date:

Astronomy

Oct. 25, 2012 Rise Set
Actual Time 7:28 AM CDT 6:16 PM CDT
Civil Twilight 7:01 AM CDT 6:43 PM CDT
Nautical Twilight 6:30 AM CDT 7:14 PM CDT
Astronomical Twilight 5:59 AM CDT 7:45 PM CDT
Moon 4:00 PM CDT (10/25) 3:28 AM CDT (10/25)
Length of Visible Light 11h 41m
Length of Day
10h 47m
Waxing Gibbous, 84% of the Moon is Illuminated
Oct 25
Waxing Gibbous
Oct 29
Full
Nov 6
Last Quarter
Nov 13
New
Nov 20
First Quarter

Hourly Weather History & Observations

Time (CDT) Temp. Windchill Dew Point Humidity Pressure Visibility Wind Dir Wind Speed Gust Speed Precip Events Conditions
12:54 AM 71.1 °F - 61.0 °F 70% 29.77 in 10.0 mi South 13.8 mph 23.0 mph N/A   Clear
1:54 AM 71.1 °F - 60.1 °F 68% 29.77 in 10.0 mi South 11.5 mph - N/A   Clear
2:54 AM 70.0 °F - 60.1 °F 71% 29.77 in 10.0 mi South 15.0 mph - N/A   Clear
3:54 AM 68.0 °F - 61.0 °F 78% 29.76 in 10.0 mi South 10.4 mph - N/A   Clear
4:54 AM 68.0 °F - 61.0 °F 78% 29.75 in 10.0 mi South 16.1 mph - N/A   Clear
5:54 AM 66.9 °F - 61.0 °F 81% 29.75 in 10.0 mi South 11.5 mph - N/A   Clear
6:54 AM 66.9 °F - 61.0 °F 81% 29.75 in 10.0 mi South 13.8 mph - N/A   Clear
8:54 AM 69.1 °F - 62.1 °F 78% 29.76 in 10.0 mi South 16.1 mph 25.3 mph N/A   Clear
9:54 AM 72.0 °F - 63.0 °F 73% 29.76 in 10.0 mi South 16.1 mph 25.3 mph N/A   Mostly Cloudy
10:54 AM 73.0 °F - 64.0 °F 73% 29.76 in 10.0 mi SSW 13.8 mph - N/A   Overcast
11:54 AM 75.9 °F - 64.0 °F 67% 29.75 in 10.0 mi SSW 20.7 mph 31.1 mph N/A   Mostly Cloudy
12:32 PM 59.0 °F - 53.6 °F 82% 29.80 in 10.0 mi WNW 25.3 mph 39.1 mph N/A   Overcast
12:54 PM 55.9 °F - 51.1 °F 84% 29.81 in 10.0 mi WNW 15.0 mph 27.6 mph 0.00 in Rain Light Rain
1:00 PM 55.4 °F - 51.8 °F 88% 29.83 in 10.0 mi WNW 16.1 mph 26.5 mph 0.00 in Rain Light Rain
1:07 PM 55.4 °F - 51.8 °F 88% 29.84 in 10.0 mi WNW 16.1 mph 26.5 mph 0.00 in Rain Light Rain
1:46 PM 53.6 °F - 48.2 °F 82% 29.87 in 10.0 mi WNW 19.6 mph 29.9 mph 0.00 in   Overcast
1:54 PM 52.0 °F - 46.9 °F 83% 29.86 in 10.0 mi WNW 21.9 mph 29.9 mph 0.00 in   Overcast
2:05 PM 51.8 °F - 46.4 °F 82% 29.88 in 10.0 mi NW 19.6 mph 26.5 mph N/A   Overcast
2:13 PM 51.8 °F - 46.4 °F 82% 29.89 in 10.0 mi NW 20.7 mph 28.8 mph N/A   Overcast
2:23 PM 51.8 °F - 46.4 °F 82% 29.89 in 10.0 mi NW 17.3 mph 27.6 mph N/A   Overcast
2:54 PM 48.0 °F - 44.1 °F 86% 29.92 in 10.0 mi NW 23.0 mph 31.1 mph N/A   Overcast
3:54 PM 46.0 °F 40.2 °F 44.1 °F 93% 29.97 in 4.0 mi NW 12.7 mph 26.5 mph 0.03 in Rain Light Rain
4:14 PM 46.4 °F 39.2 °F 42.8 °F 87% 29.98 in 10.0 mi NW 18.4 mph 25.3 mph 0.00 in Rain Light Rain
4:35 PM 46.4 °F 38.1 °F 42.8 °F 87% 29.99 in 10.0 mi NW 24.2 mph 34.5 mph 0.00 in Rain Light Rain
4:42 PM 46.4 °F 38.7 °F 42.8 °F 87% 30.00 in 10.0 mi NW 20.7 mph 32.2 mph 0.00 in   Overcast
4:44 PM 46.4 °F 39.0 °F 42.8 °F 87% 30.00 in 10.0 mi NW 19.6 mph 31.1 mph 0.00 in   Overcast
4:54 PM 46.0 °F 38.5 °F 41.0 °F 83% 30.00 in 10.0 mi NW 19.6 mph 25.3 mph 0.00 in   Overcast
5:03 PM 44.6 °F 36.6 °F 41.0 °F 87% 30.02 in 10.0 mi NW 19.6 mph 27.6 mph 0.00 in Rain Light Rain
5:54 PM 45.0 °F 39.7 °F 41.0 °F 86% 30.05 in 10.0 mi NW 10.4 mph - 0.00 in   Overcast
6:02 PM 44.6 °F 38.1 °F 41.0 °F 87% 30.05 in 10.0 mi NW 13.8 mph 18.4 mph N/A   Overcast
6:54 PM 45.0 °F 39.3 °F 39.0 °F 80% 30.08 in 10.0 mi NNW 11.5 mph - N/A   Overcast
7:54 PM 46.0 °F 39.0 °F 37.9 °F 73% 30.11 in 10.0 mi NNW 17.3 mph - N/A   Overcast
8:54 PM 46.0 °F 41.0 °F 37.9 °F 73% 30.15 in 10.0 mi NNW 10.4 mph - N/A   Overcast
9:54 PM 45.0 °F 37.1 °F 36.0 °F 71% 30.17 in 10.0 mi NNW 19.6 mph 31.1 mph N/A   Overcast
10:06 PM 44.6 °F 36.4 °F 35.6 °F 71% 30.19 in 10.0 mi NNW 20.7 mph 26.5 mph N/A   Overcast
10:13 PM 44.6 °F 37.4 °F 37.4 °F 76% 30.19 in 10.0 mi NNW 16.1 mph 26.5 mph N/A   Overcast
10:50 PM 44.6 °F 37.4 °F 33.8 °F 66% 30.21 in 10.0 mi NNW 16.1 mph 26.5 mph N/A   Overcast
10:54 PM 44.1 °F 36.2 °F 34.0 °F 68% 30.20 in 10.0 mi NNW 18.4 mph 27.6 mph N/A   Overcast
11:54 PM 43.0 °F 35.4 °F 33.1 °F 68% 30.22 in 10.0 mi NNW 16.1 mph 25.3 mph N/A   Overcast